Year,Month,Day,Hour,Minute,Value (Times are PST for temperature in C)
2018,12,14,00,00,7.10
2018,12,14,00,01,7.10
2018,12,14,00,02,7.10
2018,12,14,00,03,7.10
2018,12,14,00,04,7.10
2018,12,14,00,05,7.10
2018,12,14,00,06,7.10
2018,12,14,00,07,7.10
2018,12,14,00,08,7.10
2018,12,14,00,09,7.10
2018,12,14,00,10,7.10
2018,12,14,00,11,7.10
2018,12,14,00,12,7.20
2018,12,14,00,13,7.20
2018,12,14,00,14,7.30
2018,12,14,00,15,7.30
2018,12,14,00,16,7.30
2018,12,14,00,17,7.30
2018,12,14,00,18,7.30
2018,12,14,00,19,7.30
2018,12,14,00,20,7.30
2018,12,14,00,21,7.30
2018,12,14,00,22,7.30
2018,12,14,00,23,7.30
2018,12,14,00,24,7.30
2018,12,14,00,25,7.40
2018,12,14,00,26,7.40
2018,12,14,00,27,7.40
2018,12,14,00,28,7.40
2018,12,14,00,29,7.40
2018,12,14,00,30,7.40
2018,12,14,00,31,7.30
2018,12,14,00,32,7.30
2018,12,14,00,33,7.30
2018,12,14,00,34,7.30
2018,12,14,00,35,7.30
2018,12,14,00,36,7.30
2018,12,14,00,37,7.30
2018,12,14,00,38,7.30
2018,12,14,00,39,7.30
2018,12,14,00,40,7.30
2018,12,14,00,41,7.30
2018,12,14,00,42,7.30
2018,12,14,00,43,7.30
2018,12,14,00,44,7.30
2018,12,14,00,45,7.30
2018,12,14,00,46,7.30
2018,12,14,00,47,7.30
2018,12,14,00,48,7.30
2018,12,14,00,49,7.30
2018,12,14,00,50,7.30
2018,12,14,00,51,7.30
2018,12,14,00,52,7.30
2018,12,14,00,53,7.30
2018,12,14,00,54,7.30
2018,12,14,00,55,7.30
2018,12,14,00,56,7.30
2018,12,14,00,57,7.30
2018,12,14,00,58,7.40
2018,12,14,00,59,7.40
2018,12,14,01,00,7.50
2018,12,14,01,01,7.50
2018,12,14,01,02,7.50
2018,12,14,01,03,7.50
2018,12,14,01,04,7.50
2018,12,14,01,05,7.60
2018,12,14,01,06,7.60
2018,12,14,01,07,7.60
2018,12,14,01,08,7.60
2018,12,14,01,09,7.60
2018,12,14,01,10,7.60
2018,12,14,01,11,7.60
2018,12,14,01,12,7.60
2018,12,14,01,13,7.60
2018,12,14,01,14,7.60
2018,12,14,01,15,7.60
2018,12,14,01,16,7.60
2018,12,14,01,17,7.60
2018,12,14,01,18,7.60
2018,12,14,01,19,7.60
2018,12,14,01,20,7.50
2018,12,14,01,21,7.50
2018,12,14,01,22,7.50
2018,12,14,01,23,7.50
2018,12,14,01,24,7.50
2018,12,14,01,25,7.50
2018,12,14,01,26,7.40
2018,12,14,01,27,7.40
2018,12,14,01,28,7.40
2018,12,14,01,29,7.50
2018,12,14,01,30,7.50
2018,12,14,01,31,7.50
2018,12,14,01,32,7.60
2018,12,14,01,33,7.60
2018,12,14,01,34,7.60
2018,12,14,01,35,7.60
2018,12,14,01,36,7.60
2018,12,14,01,37,7.60
2018,12,14,01,38,7.60
2018,12,14,01,39,7.60
2018,12,14,01,40,7.60
2018,12,14,01,41,7.60
2018,12,14,01,42,7.60
2018,12,14,01,43,7.60
2018,12,14,01,44,7.60
2018,12,14,01,45,7.60
2018,12,14,01,46,7.60
2018,12,14,01,47,7.60
2018,12,14,01,48,7.60
2018,12,14,01,49,7.60
2018,12,14,01,50,7.60
2018,12,14,01,51,7.60
2018,12,14,01,52,7.60
2018,12,14,01,53,7.60
2018,12,14,01,54,7.60
2018,12,14,01,55,7.60
2018,12,14,01,56,7.60
2018,12,14,01,57,7.70
2018,12,14,01,58,7.70
2018,12,14,01,59,7.60
2018,12,14,02,00,7.60
2018,12,14,02,01,7.70
2018,12,14,02,02,7.70
2018,12,14,02,03,7.70
2018,12,14,02,04,7.70
2018,12,14,02,05,7.60
2018,12,14,02,06,7.60
2018,12,14,02,07,7.60
2018,12,14,02,08,7.60
2018,12,14,02,09,7.60
2018,12,14,02,10,7.60
2018,12,14,02,11,7.60
2018,12,14,02,12,7.60
2018,12,14,02,13,7.70
2018,12,14,02,14,7.70
2018,12,14,02,15,7.70
2018,12,14,02,16,7.70
2018,12,14,02,17,7.70
2018,12,14,02,18,7.70
2018,12,14,02,19,7.70
2018,12,14,02,20,7.70
2018,12,14,02,21,7.70
2018,12,14,02,22,7.70
2018,12,14,02,23,7.70
2018,12,14,02,24,7.60
2018,12,14,02,25,7.60
2018,12,14,02,26,7.60
2018,12,14,02,27,7.60
2018,12,14,02,28,7.60
2018,12,14,02,29,7.60
2018,12,14,02,30,7.60
2018,12,14,02,31,7.60
2018,12,14,02,32,7.60
2018,12,14,02,33,7.60
2018,12,14,02,34,7.60
2018,12,14,02,35,7.50
2018,12,14,02,36,7.50
2018,12,14,02,37,7.50
2018,12,14,02,38,7.50
2018,12,14,02,39,7.50
2018,12,14,02,40,7.40
2018,12,14,02,41,7.40
2018,12,14,02,42,7.40
2018,12,14,02,43,7.40
2018,12,14,02,44,7.40
2018,12,14,02,45,7.40
2018,12,14,02,46,7.40
2018,12,14,02,47,7.40
2018,12,14,02,48,7.40
2018,12,14,02,49,7.40
2018,12,14,02,50,7.40
2018,12,14,02,51,7.30
2018,12,14,02,52,7.30
2018,12,14,02,53,7.30
2018,12,14,02,54,7.30
2018,12,14,02,55,7.30
2018,12,14,02,56,7.30
2018,12,14,02,57,7.30
2018,12,14,02,58,7.30
2018,12,14,02,59,7.30
2018,12,14,03,00,7.30
2018,12,14,03,01,7.30
2018,12,14,03,02,7.30
2018,12,14,03,03,7.30
2018,12,14,03,04,7.30
2018,12,14,03,05,7.20
2018,12,14,03,06,7.20
2018,12,14,03,07,7.20
2018,12,14,03,08,7.20
2018,12,14,03,09,7.20
2018,12,14,03,10,7.20
2018,12,14,03,11,7.20
2018,12,14,03,12,7.10
2018,12,14,03,13,7.10
2018,12,14,03,14,7.10
2018,12,14,03,15,7.10
2018,12,14,03,16,7.10
2018,12,14,03,17,7.10
2018,12,14,03,18,7.10
2018,12,14,03,19,7.10
2018,12,14,03,20,7.10
2018,12,14,03,21,7.10
2018,12,14,03,22,7.10
2018,12,14,03,23,7.00
2018,12,14,03,24,7.00
2018,12,14,03,25,7.00
2018,12,14,03,26,6.90
2018,12,14,03,27,6.90
2018,12,14,03,28,6.90
2018,12,14,03,29,6.90
2018,12,14,03,30,6.80
2018,12,14,03,31,6.80
2018,12,14,03,32,6.80
2018,12,14,03,33,6.80
2018,12,14,03,34,6.80
2018,12,14,03,35,6.80
2018,12,14,03,36,6.80
2018,12,14,03,37,6.80
2018,12,14,03,38,6.80
2018,12,14,03,39,6.80
2018,12,14,03,40,6.80
2018,12,14,03,41,6.80
2018,12,14,03,42,6.80
2018,12,14,03,43,6.80
2018,12,14,03,44,6.80
2018,12,14,03,45,6.80
2018,12,14,03,46,6.80
2018,12,14,03,47,6.80
2018,12,14,03,48,6.70
2018,12,14,03,49,6.70
2018,12,14,03,50,6.70
2018,12,14,03,51,6.70
2018,12,14,03,52,6.70
2018,12,14,03,53,6.70
2018,12,14,03,54,6.70
2018,12,14,03,55,6.60
2018,12,14,03,56,6.60
2018,12,14,03,57,6.60
2018,12,14,03,58,6.60
2018,12,14,03,59,6.60
2018,12,14,04,00,6.60
2018,12,14,04,01,6.60
2018,12,14,04,02,6.60
2018,12,14,04,03,6.60
2018,12,14,04,04,6.60
2018,12,14,04,05,6.60
2018,12,14,04,06,6.60
2018,12,14,04,07,6.60
2018,12,14,04,08,6.70
2018,12,14,04,09,6.70
2018,12,14,04,10,6.70
2018,12,14,04,11,6.70
2018,12,14,04,12,6.70
2018,12,14,04,13,6.80
2018,12,14,04,14,6.80
2018,12,14,04,15,6.80
2018,12,14,04,16,6.80
2018,12,14,04,17,6.80
2018,12,14,04,18,6.80
2018,12,14,04,19,6.80
2018,12,14,04,20,6.80
2018,12,14,04,21,6.80
2018,12,14,04,22,6.90
2018,12,14,04,23,6.90
2018,12,14,04,24,6.90
2018,12,14,04,25,6.80
2018,12,14,04,26,6.80
2018,12,14,04,27,6.70
2018,12,14,04,28,6.70
2018,12,14,04,29,6.70
2018,12,14,04,30,6.80
2018,12,14,04,31,6.80
2018,12,14,04,32,6.80
2018,12,14,04,33,6.70
2018,12,14,04,34,6.70
2018,12,14,04,35,6.80
2018,12,14,04,36,6.80
2018,12,14,04,37,6.80
2018,12,14,04,38,6.80
2018,12,14,04,39,6.80
2018,12,14,04,40,6.80
2018,12,14,04,41,6.80
2018,12,14,04,42,6.80
2018,12,14,04,43,6.80
2018,12,14,04,44,6.80
2018,12,14,04,45,6.80
2018,12,14,04,46,6.80
2018,12,14,04,47,6.80
2018,12,14,04,48,6.70
2018,12,14,04,49,6.70
2018,12,14,04,50,6.70
2018,12,14,04,51,6.70
2018,12,14,04,52,6.70
2018,12,14,04,53,6.80
2018,12,14,04,54,6.80
2018,12,14,04,55,6.80
2018,12,14,04,56,6.80
2018,12,14,04,57,6.70
2018,12,14,04,58,6.70
2018,12,14,04,59,6.70
2018,12,14,05,00,6.70
2018,12,14,05,01,6.60
2018,12,14,05,02,6.60
2018,12,14,05,03,6.60
2018,12,14,05,04,6.60
2018,12,14,05,05,6.60
2018,12,14,05,06,6.70
2018,12,14,05,07,6.70
2018,12,14,05,08,6.80
2018,12,14,05,09,6.80
2018,12,14,05,10,6.80
2018,12,14,05,11,6.80
2018,12,14,05,12,6.80
2018,12,14,05,13,6.80
2018,12,14,05,14,6.80
2018,12,14,05,15,6.80
2018,12,14,05,16,6.80
2018,12,14,05,17,6.80
2018,12,14,05,18,6.80
2018,12,14,05,19,6.70
2018,12,14,05,20,6.70
2018,12,14,05,21,6.70
2018,12,14,05,22,6.70
2018,12,14,05,23,6.70
2018,12,14,05,24,6.60
2018,12,14,05,25,6.60
2018,12,14,05,26,6.60
2018,12,14,05,27,6.60
2018,12,14,05,28,6.60
2018,12,14,05,29,6.60
2018,12,14,05,30,6.60
2018,12,14,05,31,6.60
2018,12,14,05,32,6.60
2018,12,14,05,33,6.50
2018,12,14,05,34,6.50
2018,12,14,05,35,6.50
2018,12,14,05,36,6.40
2018,12,14,05,37,6.40
2018,12,14,05,38,6.40
2018,12,14,05,39,6.40
2018,12,14,05,40,6.40
2018,12,14,05,41,6.30
2018,12,14,05,42,6.30
2018,12,14,05,43,6.30
2018,12,14,05,44,6.30
2018,12,14,05,45,6.30
2018,12,14,05,46,6.30
2018,12,14,05,47,6.30
2018,12,14,05,48,6.30
2018,12,14,05,49,6.30
2018,12,14,05,50,6.30
2018,12,14,05,51,6.20
2018,12,14,05,52,6.20
2018,12,14,05,53,6.20
2018,12,14,05,54,6.20
2018,12,14,05,55,6.20
2018,12,14,05,56,6.20
2018,12,14,05,57,6.20
2018,12,14,05,58,6.10
2018,12,14,05,59,6.10
2018,12,14,06,00,6.10
2018,12,14,06,01,6.10
2018,12,14,06,02,6.10
2018,12,14,06,03,6.10
2018,12,14,06,04,6.00
2018,12,14,06,05,6.00
2018,12,14,06,06,6.00
2018,12,14,06,07,6.00
2018,12,14,06,08,6.00
2018,12,14,06,09,5.90
2018,12,14,06,10,5.90
2018,12,14,06,11,5.90
2018,12,14,06,12,5.90
2018,12,14,06,13,5.90
2018,12,14,06,14,5.90
2018,12,14,06,15,5.90
2018,12,14,06,16,5.90
2018,12,14,06,17,5.90
2018,12,14,06,18,5.90
2018,12,14,06,19,5.90
2018,12,14,06,20,5.90
2018,12,14,06,21,5.90
2018,12,14,06,22,5.90
2018,12,14,06,23,5.90
2018,12,14,06,24,5.90
2018,12,14,06,25,5.90
2018,12,14,06,26,5.80
2018,12,14,06,27,5.80
2018,12,14,06,28,5.80
2018,12,14,06,29,5.80
2018,12,14,06,30,5.80
2018,12,14,06,31,5.80
2018,12,14,06,32,5.80
2018,12,14,06,33,5.80
2018,12,14,06,34,5.80
2018,12,14,06,35,5.80
2018,12,14,06,36,5.80
2018,12,14,06,37,5.80
2018,12,14,06,38,5.80
2018,12,14,06,39,5.80
2018,12,14,06,40,5.80
2018,12,14,06,41,5.80
2018,12,14,06,42,5.70
2018,12,14,06,43,5.70
2018,12,14,06,44,5.70
2018,12,14,06,45,5.70
2018,12,14,06,46,5.70
2018,12,14,06,47,5.70
2018,12,14,06,48,5.70
2018,12,14,06,49,5.70
2018,12,14,06,50,5.70
2018,12,14,06,51,5.70
2018,12,14,06,52,5.70
2018,12,14,06,53,5.70
2018,12,14,06,54,5.70
2018,12,14,06,55,5.70
2018,12,14,06,56,5.70
2018,12,14,06,57,5.70
2018,12,14,06,58,5.70
2018,12,14,06,59,5.70
2018,12,14,07,00,5.70
2018,12,14,07,01,5.70
2018,12,14,07,02,5.70
2018,12,14,07,03,5.70
2018,12,14,07,04,5.70
2018,12,14,07,05,5.70
2018,12,14,07,06,5.70
2018,12,14,07,07,5.70
2018,12,14,07,08,5.70
2018,12,14,07,09,5.70
2018,12,14,07,10,5.70
2018,12,14,07,11,5.70
2018,12,14,07,12,5.70
2018,12,14,07,13,5.70
2018,12,14,07,14,5.70
2018,12,14,07,15,5.70
2018,12,14,07,16,5.70
2018,12,14,07,17,5.70
2018,12,14,07,18,5.70
2018,12,14,07,19,5.70
2018,12,14,07,20,5.60
2018,12,14,07,21,5.60
2018,12,14,07,22,5.60
2018,12,14,07,23,5.60
2018,12,14,07,24,5.60
2018,12,14,07,25,5.60
2018,12,14,07,26,5.60
2018,12,14,07,27,5.60
2018,12,14,07,28,5.60
2018,12,14,07,29,5.60
2018,12,14,07,30,5.60
2018,12,14,07,31,5.60
2018,12,14,07,32,5.50
2018,12,14,07,33,5.50
2018,12,14,07,34,5.50
2018,12,14,07,35,5.50
2018,12,14,07,36,5.50
2018,12,14,07,37,5.50
2018,12,14,07,38,5.50
2018,12,14,07,39,5.40
2018,12,14,07,40,5.40
2018,12,14,07,41,5.40
2018,12,14,07,42,5.40
2018,12,14,07,43,5.40
2018,12,14,07,44,5.40
2018,12,14,07,45,5.40
2018,12,14,07,46,5.40
2018,12,14,07,47,5.40
2018,12,14,07,48,5.40
2018,12,14,07,49,5.40
2018,12,14,07,50,5.40
2018,12,14,07,51,5.40
2018,12,14,07,52,5.40
2018,12,14,07,53,5.30
2018,12,14,07,54,5.30
2018,12,14,07,55,5.30
2018,12,14,07,56,5.30
2018,12,14,07,57,5.30
2018,12,14,07,58,5.30
2018,12,14,07,59,5.30
2018,12,14,08,00,5.30
2018,12,14,08,01,5.30
2018,12,14,08,02,5.30
2018,12,14,08,03,5.30
2018,12,14,08,04,5.30
2018,12,14,08,05,5.30
2018,12,14,08,06,5.30
2018,12,14,08,07,5.30
2018,12,14,08,08,5.20
2018,12,14,08,09,5.20
2018,12,14,08,10,5.20
2018,12,14,08,11,5.20
2018,12,14,08,12,5.30
2018,12,14,08,13,5.30
2018,12,14,08,14,5.20
2018,12,14,08,15,5.20
2018,12,14,08,16,5.20
2018,12,14,08,17,5.20
2018,12,14,08,18,5.20
2018,12,14,08,19,5.20
2018,12,14,08,20,5.20
2018,12,14,08,21,5.20
2018,12,14,08,22,5.20
2018,12,14,08,23,5.20
2018,12,14,08,24,5.20
2018,12,14,08,25,5.10
2018,12,14,08,26,5.10
2018,12,14,08,27,5.10
2018,12,14,08,28,5.10
2018,12,14,08,29,5.10
2018,12,14,08,30,5.10
2018,12,14,08,31,5.10
2018,12,14,08,32,5.10
2018,12,14,08,33,5.10
2018,12,14,08,34,5.00
2018,12,14,08,35,5.00
2018,12,14,08,36,5.00
2018,12,14,08,37,5.00
2018,12,14,08,38,5.00
2018,12,14,08,39,5.00
2018,12,14,08,40,5.00
2018,12,14,08,41,5.00
2018,12,14,08,42,5.00
2018,12,14,08,43,5.00
2018,12,14,08,44,5.00
2018,12,14,08,45,5.00
2018,12,14,08,46,5.00
2018,12,14,08,47,5.00
2018,12,14,08,48,5.00
2018,12,14,08,49,5.00
